TimeCDT,TemperatureF,Dew PointF,Humidity,Sea Level PressureIn,VisibilityMPH,Wind Direction,Wind SpeedMPH,Gust SpeedMPH,PrecipitationIn,Events,Conditions,WindDirDegrees,DateUTC
12:53 AM,80.1,60.1,50,29.93,10.0,SSE,5.8,-,N/A,,Clear,150,2013-07-14 05:53:00
1:53 AM,78.1,61.0,56,29.94,10.0,WSW,3.5,-,N/A,,Clear,240,2013-07-14 06:53:00
2:53 AM,75.0,62.1,64,29.94,10.0,SE,3.5,-,N/A,,Mostly Cloudy,130,2013-07-14 07:53:00
3:53 AM,75.0,62.1,64,29.94,10.0,Calm,Calm,-,N/A,,Partly Cloudy,0,2013-07-14 08:53:00
4:53 AM,75.9,60.1,58,29.94,10.0,SSE,4.6,-,N/A,,Scattered Clouds,150,2013-07-14 09:53:00
5:53 AM,75.0,59.0,57,29.95,10.0,ESE,4.6,-,N/A,,Clear,120,2013-07-14 10:53:00
6:53 AM,73.9,59.0,59,29.96,10.0,SSE,3.5,-,N/A,,Clear,150,2013-07-14 11:53:00
7:53 AM,75.0,60.1,60,29.98,10.0,Calm,Calm,-,N/A,,Mostly Cloudy,0,2013-07-14 12:53:00
8:53 AM,73.9,63.0,68,30.00,10.0,Calm,Calm,-,0.00,,Mostly Cloudy,0,2013-07-14 13:53:00
9:53 AM,75.9,59.0,56,30.01,10.0,Calm,Calm,-,N/A,,Scattered Clouds,0,2013-07-14 14:53:00
10:53 AM,77.0,60.1,56,30.01,10.0,North,4.6,-,0.00,,Mostly Cloudy,350,2013-07-14 15:53:00
11:53 AM,79.0,61.0,54,30.00,10.0,Variable,4.6,-,N/A,,Scattered Clouds,0,2013-07-14 16:53:00
12:53 PM,80.1,61.0,52,29.99,10.0,Variable,3.5,-,N/A,,Clear,0,2013-07-14 17:53:00
1:53 PM,82.9,63.0,51,29.97,10.0,Variable,4.6,-,N/A,,Clear,0,2013-07-14 18:53:00
2:53 PM,84.0,63.0,49,29.96,10.0,SSW,6.9,-,N/A,,Clear,200,2013-07-14 19:53:00
3:53 PM,86.0,62.1,44,29.94,10.0,Variable,3.5,-,N/A,,Clear,0,2013-07-14 20:53:00
4:53 PM,86.0,61.0,43,29.91,10.0,Variable,3.5,-,N/A,,Partly Cloudy,0,2013-07-14 21:53:00
5:34 PM,87.8,62.6,43,29.93,10.0,SSW,6.9,-,N/A,Thunderstorm,Clear,200,2013-07-14 22:34:00
5:53 PM,82.0,55.9,41,29.92,10.0,North,9.2,17.3,N/A,Thunderstorm,Scattered Clouds,10,2013-07-14 22:53:00
6:51 PM,66.2,60.8,83,30.00,1.0,East,20.7,36.8,0.15,Rain-Thunderstorm,Heavy Thunderstorms and Rain,80,2013-07-14 23:51:00
6:53 PM,64.9,61.0,87,29.98,0.5,East,21.9,36.8,0.24,Fog-Rain-Thunderstorm,Heavy Thunderstorms and Rain,80,2013-07-14 23:53:00
7:04 PM,62.6,60.8,94,29.99,0.8,Variable,4.6,19.6,0.29,Rain-Thunderstorm,Heavy Thunderstorms and Rain,0,2013-07-15 00:04:00
7:11 PM,62.6,60.8,94,29.98,1.5,NE,5.8,-,0.40,Rain-Thunderstorm,Heavy Thunderstorms and Rain,50,2013-07-15 00:11:00
7:21 PM,64.4,60.8,88,29.98,3.0,NE,5.8,-,0.46,Rain-Thunderstorm,Thunderstorms and Rain,50,2013-07-15 00:21:00
7:53 PM,66.0,61.0,84,29.95,10.0,NNE,5.8,-,0.54,Rain-Thunderstorm,Light Thunderstorms and Rain,20,2013-07-15 00:53:00
8:53 PM,66.0,62.1,87,29.99,10.0,Calm,Calm,-,0.02,Thunderstorm,Mostly Cloudy,0,2013-07-15 01:53:00
9:06 PM,66.2,62.6,88,30.00,10.0,West,3.5,-,N/A,,Mostly Cloudy,260,2013-07-15 02:06:00
9:53 PM,66.0,63.0,90,30.00,8.0,Calm,Calm,-,N/A,,Clear,0,2013-07-15 02:53:00
10:53 PM,66.0,63.0,90,30.00,8.0,Calm,Calm,-,N/A,,Clear,0,2013-07-15 03:53:00
11:53 PM,66.0,64.0,93,30.01,7.0,Calm,Calm,-,N/A,,Clear,0,2013-07-15 04:53:00